Regional Weather Roundup
Issued by NWS Sioux Falls, SD

Home | Current Version | Previous Version | Graphics & Text | Print | Product List | Glossary Off
Versions: 1 2 3 4 5 6 7 8 9 10 11 12 13 14 15 16 17 18 19 20 21 22 23 24 25 26 27 28 29 30 31 32 33 34 35 36 37 38 39 40 41 42 43 44 45 46 47 48 49 50

000
ASUS43 KFSD 301410
RWRFSD

WEATHER ROUNDUP FOR SE SOUTH DAKOTA/SW MINNESOTA/NW IOWA
NATIONAL WEATHER SERVICE SIOUX FALLS SD
900 AM CDT SAT MAY 30 2015

NOTE: "FAIR" INDICATES FEW OR NO CLOUDS BELOW 12,000 FEET WITH NO
SIGNIFICANT WEATHER AND OR OBSTRUCTIONS TO VISIBILITY.


SDZ038>040-050-052>070-301500-
SOUTHEAST SOUTH DAKOTA

CITY           SKY/WX    TMP DP  RH WIND       PRES   REMARKS
BROOKINGS      SUNNY     43  36  75 N14       30.30S
CHAMBERLAIN    SUNNY     43  37  78 N12       30.35S
HURON          SUNNY     44  34  67 N14       30.34R
MADISON        FAIR      43  41  93 N15       30.29R
MITCHELL       SUNNY     47  38  71 N14       30.33R
SIOUX FALLS    MOSUNNY   47  39  74 N14G21    30.27R
WINNER         FAIR      46  37  71 NE10      30.34S
YANKTON        MOSUNNY   48  39  71 N15       30.28R
$$

MNZ071-072-080-081-089-090-097-098-301500-
SOUTHWEST MINNESOTA

CITY           SKY/WX    TMP DP  RH WIND       PRES   REMARKS
FAIRMONT       PTSUNNY   48  39  71 N21G26    30.19R
JACKSON        CLOUDY    46  41  81 VRB20G26  30.22R
LUVERNE        MOSUNNY   48  41  76 N14       30.25S
MARSHALL       MOSUNNY   46  37  71 N17       30.27S
MONTEVIDEO     SUNNY     48  41  76 NE17      30.30R
PIPESTONE      MOSUNNY   45  37  76 NE12G21   30.25S
REDWOOD FALLS  MOSUNNY   50  40  68 N15G25    30.25R
TRACY          MOSUNNY   48  43  83 N16       30.26S
WINDOM         PTSUNNY   46  41  81 N17G24    30.23R
WORTHINGTON    PTSUNNY   46  37  71 N16G28    30.23S
$$

IAZ001>003-012>014-020>022-031-032-NEZ013-014-SDZ071-301500-
NORTHWEST IOWA

CITY           SKY/WX    TMP DP  RH WIND       PRES   REMARKS
CHEROKEE       PTSUNNY   49  43  80 N13G20    30.20R
DENISON        CLOUDY    50  50 100 N16       30.16R
ESTHERVILLE    CLOUDY    49  42  77 N20G30    30.19R
LE MARS        PTSUNNY   50  43  76 N18G26    30.24R
ORANGE CITY    PTSUNNY   48  43  81 N13G21    30.23R
SHELDON        CLOUDY    48  43  81 N22G29    30.22R
SIOUX CITY     CLOUDY    52  42  69 N17       30.23R
SPENCER        CLOUDY    51  41  68 N25       30.20R
STORM LAKE     CLOUDY    50  43  76 N23G30    30.18R
$$

ABBREVIATIONS USED IN REMARKS
   TC - TEMPERATURE IN CELSIUS
  WCI - WIND CHILL INDEX
   HX - HEAT INDEX
  VSB - VISIBILITY



USA.gov is the U.S. government's official web portal to all federal, state and local government web resources and services.